CW8371 Weather Reports


time (UTC)temp
C
wind
direction
speed
KPH
gust
KPH
rain 1hr
cm
rain 24hr
cm
rain mn
cm
humidity
%
barometer
mb
20260507051003 12 298 3.2 12.9 0.00 0.46 0.00 86 1006.8
20260507050503 12 298 1.6 12.9 0.00 0.46 0.00 86 1006.9
20260507050003 12 298 0.0 11.3 0.00 0.46 0.00 87 1006.9
20260507045503 12 298 1.6 12.9 0.00 0.46 0.00 86 1006.8
20260507045003 12 298 1.6 12.9 0.03 0.46 0.00 85 1006.7
20260507044503 12 299 0.0 4.8 0.03 0.46 0.00 85 1006.4
20260507044003 12 299 0.0 6.4 0.03 0.46 0.00 86 1006.4
20260507043503 12 299 3.2 16.1 0.03 0.46 0.00 86 1006.7
20260507043024 12 299 3.2 16.1 0.03 0.46 0.00 85 1006.7
20260507042503 12 297 3.2 12.9 0.03 0.46 0.00 86 1006.6
20260507042003 12 295 3.2 16.1 0.03 0.46 0.00 86 1006.5
20260507041503 13 290 3.2 16.1 0.03 0.46 0.00 86 1006.7
20260507041003 13 288 1.6 12.9 0.03 0.46 0.00 89 1006.6
20260507040503 13 0 0.0 0.0 0.03 0.46 0.00 92 1006.7
20260507040004 13 0 0.0 0.0 0.03 0.46 0.00 91 1006.7
20260507035524 13 283 0.0 9.7 0.03 0.46 0.46 90 1006.6
20260507035003 13 283 1.6 14.5 0.00 0.43 0.43 90 1006.5
20260507034503 13 283 1.6 14.5 0.00 0.43 0.43 89 1006.4
20260507034003 13 283 1.6 14.5 0.00 0.43 0.43 88 1006.2
20260507033503 14 284 4.8 14.5 0.00 0.43 0.43 88 1006.1
20260507033003 14 286 4.8 16.1 0.00 0.43 0.43 87 1006.0
20260507032503 14 287 6.4 16.1 0.00 0.43 0.43 87 1006.1
20260507032003 14 291 8.0 20.9 0.00 0.43 0.43 87 1006.0
20260507031503 14 299 8.0 20.9 0.00 0.43 0.43 86 1005.8
20260507031024 15 309 6.4 17.7 0.00 0.43 0.43 87 1005.7
20260507030503 15 302 6.4 22.5 0.00 0.43 0.43 90 1005.4
20260507030024 15 279 8.0 22.5 0.00 0.43 0.43 91 1005.5
20260507025524 15 239 4.8 22.5 0.00 0.43 0.43 95 1005.6
20260507025003 15 175 1.6 9.7 0.00 0.43 0.43 95 1005.5
20260507024524 15 173 0.0 3.2 0.00 0.43 0.43 95 1005.5
20260507024003 15 0 0.0 0.0 0.00 0.43 0.43 95 1005.3
20260507023503 15 173 0.0 1.6 0.00 0.43 0.43 95 1005.3
20260507023003 15 171 1.6 12.9 0.00 0.43 0.43 95 1005.3
20260507022524 15 170 1.6 12.9 0.00 0.43 0.43 95 1005.4
20260507022024 15 169 1.6 8.0 0.00 0.43 0.43 94 1005.4
20260507021503 15 169 1.6 8.0 0.00 0.43 0.43 94 1005.3
20260507021003 15 169 0.0 8.0 0.00 0.43 0.43 94 1005.1
20260507020503 15 169 0.0 8.0 0.00 0.43 0.43 94 1004.9
20260507020024 15 169 1.6 8.0 0.00 0.43 0.43 94 1005.0
20260507015503 15 169 4.8 11.3 0.00 0.43 0.43 94 1005.1
20260507015003 15 169 4.8 14.5 0.00 0.43 0.43 94 1005.2
20260507014503 15 169 6.4 14.5 0.00 0.43 0.43 94 1005.0
20260507014024 15 169 6.4 14.5 0.00 0.43 0.43 94 1005.1
20260507013503 15 169 6.4 14.5 0.00 0.43 0.43 94 1005.0
20260507013003 15 170 6.4 16.1 0.00 0.43 0.43 94 1005.0
20260507012503 15 170 6.4 16.1 0.00 0.43 0.43 95 1005.0
20260507012003 15 170 4.8 14.5 0.00 0.43 0.43 95 1005.2
20260507011524 15 169 4.8 14.5 0.00 0.43 0.43 95 1005.1
20260507011003 15 168 6.4 16.1 0.00 0.43 0.43 95 1005.1
20260507010504 15 167 6.4 16.1 0.00 0.43 0.43 95 1005.2
20260507010003 15 167 4.8 9.7 0.00 0.43 0.43 95 1005.2
20260507005504 15 167 6.4 17.7 0.00 0.43 0.43 95 1005.2
20260507005004 15 167 6.4 17.7 0.00 0.43 0.43 95 1005.2
20260507004503 15 170 6.4 17.7 0.00 0.43 0.43 95 1005.1
20260507004003 15 171 6.4 17.7 0.00 0.43 0.43 95 1005.0
20260507003524 15 171 6.4 19.3 0.00 0.43 0.43 95 1005.0
20260507003004 15 170 8.0 19.3 0.00 0.43 0.43 95 1005.0
20260507002503 15 170 8.0 17.7 0.00 0.43 0.43 95 1004.9
20260507002003 15 171 6.4 19.3 0.00 0.43 0.43 95 1004.8
20260507001524 15 170 6.4 19.3 0.00 0.43 0.43 95 1004.9
20260507001003 15 169 8.0 19.3 0.00 0.43 0.43 95 1004.9
20260507000504 15 167 8.0 19.3 0.03 0.43 0.43 95 1005.0
20260507000004 15 166 8.0 17.7 0.05 0.43 0.43 95 1005.0
20260506235503 15 166 8.0 16.1 0.05 0.43 0.43 95 1004.8
20260506235003 15 165 6.4 16.1 0.08 0.43 0.43 95 1004.8
20260506234503 15 166 8.0 22.5 0.08 0.43 0.43 95 1004.9
20260506234024 15 168 9.7 22.5 0.10 0.43 0.43 95 1004.7
20260506233503 15 168 9.7 19.3 0.10 0.43 0.43 95 1004.7
20260506233003 15 168 6.4 17.7 0.10 0.43 0.43 95 1004.7
20260506232503 15 168 4.8 16.1 0.13 0.43 0.43 95 1004.8
20260506232003 15 167 6.4 16.1 0.13 0.43 0.43 95 1004.8
20260506231503 15 166 6.4 16.1 0.13 0.43 0.43 95 1004.7
20260506231003 15 167 6.4 16.1 0.13 0.43 0.43 95 1004.8
20260506230503 15 168 6.4 17.7 0.10 0.41 0.41 94 1004.8
20260506230003 15 168 4.8 17.7 0.08 0.38 0.38 94 1004.9
20260506225503 15 167 3.2 16.1 0.08 0.38 0.38 94 1004.9
20260506225003 15 167 6.4 17.7 0.05 0.36 0.36 94 1005.0
20260506224503 15 166 8.0 17.7 0.08 0.36 0.36 94 1005.1
20260506224003 15 168 8.0 17.7 0.05 0.33 0.33 93 1005.1
20260506223503 16 171 8.0 19.3 0.05 0.33 0.33 93 1005.1
20260506223003 16 169 8.0 19.3 0.05 0.33 0.33 93 1005.0
20260506222524 16 166 8.0 17.7 0.05 0.30 0.30 93 1005.0
20260506222003 16 165 8.0 22.5 0.05 0.30 0.30 93 1005.1
20260506221504 16 165 8.0 22.5 0.05 0.30 0.30 93 1005.1
20260506221003 16 169 9.7 19.3 0.05 0.30 0.30 93 1005.1
20260506220503 16 170 9.7 19.3 0.05 0.30 0.30 93 1005.1
20260506220024 16 169 6.4 17.7 0.08 0.30 0.30 93 1005.1
20260506215524 16 169 8.0 24.1 0.08 0.30 0.30 93 1005.1
20260506215004 16 170 8.0 24.1 0.08 0.30 0.30 93 1005.1
20260506214503 16 171 6.4 22.5 0.08 0.28 0.28 93 1005.0
20260506214024 16 169 8.0 22.5 0.10 0.28 0.28 93 1005.1
20260506213503 16 167 8.0 19.3 0.10 0.28 0.28 92 1005.0
20260506213003 16 165 9.7 25.7 0.10 0.28 0.28 92 1005.1
20260506212503 16 164 8.0 25.7 0.10 0.25 0.25 92 1005.0
20260506212003 16 164 8.0 22.5 0.10 0.25 0.25 92 1005.2
20260506211503 16 167 9.7 27.4 0.10 0.25 0.25 92 1005.4
20260506211003 16 167 11.3 27.4 0.13 0.25 0.25 92 1005.4
20260506210503 16 165 11.3 27.4 0.13 0.25 0.25 92 1005.5
20260506210024 16 166 11.3 27.4 0.10 0.23 0.23 92 1005.5
20260506205503 16 172 9.7 27.4 0.10 0.23 0.23 92 1005.5
20260506205003 16 177 6.4 19.3 0.10 0.23 0.23 92 1005.7
20260506204524 16 170 8.0 25.7 0.08 0.20 0.20 91 1005.6
20260506204025 16 164 9.7 25.7 0.05 0.18 0.18 91 1005.9
20260506203503 16 164 8.0 24.1 0.05 0.18 0.18 91 1005.9
20260506203004 16 166 9.7 24.1 0.05 0.18 0.18 91 1005.9
20260506202504 17 169 9.7 24.1 0.03 0.15 0.15 90 1005.8
20260506202004 17 172 9.7 22.5 0.03 0.15 0.15 89 1005.8
20260506201524 17 181 9.7 22.5 0.03 0.15 0.15 89 1005.8
20260506201004 17 189 9.7 20.9 0.00 0.13 0.13 88 1005.9
20260506200504 17 184 8.0 20.9 0.03 0.13 0.13 87 1005.9
20260506200024 17 181 9.7 24.1 0.03 0.13 0.13 86 1005.9
20260506195503 17 183 9.7 24.1 0.05 0.13 0.13 86 1006.0
20260506195025 17 185 6.4 17.7 0.05 0.13 0.13 87 1005.9
20260506194503 17 183 6.4 16.1 0.05 0.13 0.13 87 1006.0
20260506194003 17 171 9.7 30.6 0.08 0.13 0.13 86 1005.9
20260506193503 17 168 11.3 30.6 0.08 0.13 0.13 86 1005.8
20260506193003 17 171 9.7 25.7 0.10 0.13 0.13 87 1005.8
20260506192504 17 179 4.8 19.3 0.10 0.13 0.13 88 1005.9
20260506192025 17 205 1.6 12.9 0.10 0.13 0.13 89 1005.9
20260506191503 17 216 1.6 11.3 0.10 0.13 0.13 89 1005.9
20260506191025 17 231 0.0 4.8 0.13 0.13 0.13 89 1005.7
20260506190503 17 232 0.0 9.7 0.10 0.10 0.10 88 1005.7
20260506190004 17 233 1.6 12.9 0.10 0.10 0.10 88 1005.9
20260506185524 17 236 3.2 12.9 0.08 0.08 0.08 87 1006.1
20260506185003 18 242 4.8 12.9 0.08 0.08 0.08 86 1006.1
20260506184503 18 246 3.2 12.9 0.08 0.08 0.08 86 1006.1
20260506184003 18 248 3.2 11.3 0.05 0.05 0.05 84 1006.4
20260506183503 18 247 3.2 11.3 0.05 0.05 0.05 84 1006.2
20260506183004 18 262 4.8 16.1 0.03 0.03 0.03 82 1006.5
20260506182504 18 276 4.8 16.1 0.03 0.03 0.03 81 1006.5
20260506182003 19 288 4.8 16.1 0.03 0.03 0.03 78 1006.4
20260506181503 20 274 6.4 16.1 0.03 0.03 0.03 74 1006.6
20260506181024 20 236 8.0 19.3 0.00 0.00 0.00 71 1006.5
20260506180503 21 210 9.7 24.1 0.00 0.00 0.00 66 1006.5
20260506180004 21 209 8.0 24.1 0.00 0.00 0.00 66 1006.4
20260506175524 21 210 6.4 16.1 0.00 0.00 0.00 66 1006.3
20260506175003 21 204 8.0 22.5 0.00 0.00 0.00 65 1006.5
20260506174503 21 194 11.3 25.7 0.00 0.00 0.00 64 1006.3
20260506174003 21 185 14.5 29.0 0.00 0.00 0.00 64 1006.3
20260506173503 22 183 11.3 29.0 0.00 0.00 0.00 60 1006.3
20260506173004 22 183 11.3 24.1 0.00 0.00 0.00 61 1006.2
20260506172503 22 179 11.3 27.4 0.00 0.00 0.00 59 1006.0
20260506172024 22 189 11.3 32.2 0.00 0.00 0.00 60 1006.1
20260506171503 22 189 12.9 32.2 0.00 0.00 0.00 59 1006.1
20260506171003 23 180 11.3 27.4 0.00 0.00 0.00 58 1006.0
20260506170503 23 192 11.3 27.4 0.00 0.00 0.00 59 1006.2
20260506170004 23 198 12.9 27.4 0.00 0.00 0.00 59 1006.3
20260506165504 23 188 12.9 37.0 0.00 0.00 0.00 60 1006.5
20260506165003 22 185 14.5 37.0 0.00 0.00 0.00 60 1006.6
20260506164503 22 185 14.5 35.4 0.00 0.00 0.00 61 1006.6
20260506164003 22 176 14.5 35.4 0.00 0.00 0.00 61 1006.7
20260506163503 22 175 14.5 29.0 0.00 0.00 0.00 61 1006.7
20260506163004 22 182 12.9 29.0 0.00 0.00 0.00 62 1006.8
20260506162503 22 182 12.9 27.4 0.00 0.00 0.00 63 1006.9
20260506162025 22 185 9.7 24.1 0.00 0.00 0.00 63 1006.9
20260506161525 22 197 9.7 22.5 0.00 0.00 0.00 64 1007.0
20260506161004 21 185 9.7 20.9 0.00 0.00 0.00 65 1007.1
20260506160504 21 172 8.0 22.5 0.00 0.00 0.00 66 1007.2
20260506160004 21 171 8.0 25.7 0.00 0.00 0.00 66 1007.3
20260506155525 21 170 9.7 27.4 0.00 0.00 0.00 66 1007.4
20260506155004 21 169 9.7 27.4 0.00 0.00 0.00 65 1007.5
20260506154504 21 174 8.0 20.9 0.00 0.00 0.00 67 1007.5
20260506154004 21 182 6.4 19.3 0.00 0.00 0.00 67 1007.6
20260506153504 21 178 8.0 22.5 0.00 0.00 0.00 67 1007.7
20260506153004 21 183 9.7 22.5 0.00 0.00 0.00 68 1007.8
20260506152504 21 175 9.7 24.1 0.00 0.00 0.00 68 1008.0
20260506152004 21 172 9.7 24.1 0.00 0.00 0.00 67 1007.9
20260506151504 21 175 11.3 29.0 0.00 0.00 0.00 68 1008.0
20260506151004 21 170 12.9 30.6 0.00 0.00 0.00 67 1008.1
20260506150504 21 169 12.9 30.6 0.00 0.00 0.00 68 1008.1
20260506150004 21 168 9.7 30.6 0.00 0.00 0.00 67 1008.0
20260506145504 21 177 9.7 30.6 0.00 0.00 0.00 68 1008.1
20260506145004 21 177 9.7 24.1 0.00 0.00 0.00 69 1008.3
20260506144504 21 172 11.3 24.1 0.00 0.00 0.00 68 1008.4
20260506144003 21 177 9.7 24.1 0.00 0.00 0.00 68 1008.2
20260506143504 21 187 11.3 24.1 0.00 0.00 0.00 70 1008.1
20260506143025 20 182 12.9 24.1 0.00 0.00 0.00 69 1008.2
20260506142504 20 172 9.7 24.1 0.00 0.00 0.00 70 1008.1
20260506142004 20 181 8.0 24.1 0.00 0.00 0.00 70 1008.1
20260506141524 20 188 9.7 24.1 0.00 0.00 0.00 70 1008.0
20260506141003 20 178 11.3 27.4 0.00 0.00 0.00 71 1007.9
20260506140504 20 176 11.3 30.6 0.00 0.00 0.00 71 1007.9
20260506140004 20 181 9.7 30.6 0.00 0.00 0.00 72 1007.9
20260506135525 20 175 9.7 29.0 0.00 0.00 0.00 73 1008.1
20260506135003 20 166 9.7 27.4 0.00 0.00 0.00 73 1008.1
20260506134504 19 169 11.3 25.7 0.00 0.00 0.00 73 1008.1
20260506134003 19 172 9.7 24.1 0.00 0.00 0.00 73 1008.2
20260506133503 19 171 9.7 25.7 0.00 0.00 0.00 74 1008.2
20260506133003 19 170 11.3 27.4 0.00 0.00 0.00 74 1008.3
20260506132504 19 171 11.3 27.4 0.00 0.00 0.00 74 1008.4
20260506132003 19 170 12.9 27.4 0.00 0.00 0.00 75 1008.5
20260506131504 19 165 11.3 30.6 0.00 0.00 0.00 74 1008.7
20260506131024 18 164 9.7 30.6 0.00 0.00 0.00 75 1008.7
20260506130503 18 171 11.3 27.4 0.00 0.00 0.00 75 1008.6
20260506130004 18 172 11.3 27.4 0.00 0.00 0.00 75 1008.7
20260506125503 18 171 12.9 27.4 0.00 0.00 0.00 75 1008.5
20260506125003 18 172 11.3 27.4 0.00 0.00 0.00 75 1008.8
20260506124503 18 179 11.3 27.4 0.00 0.00 0.00 75 1008.8
20260506124003 18 176 12.9 25.7 0.00 0.00 0.00 75 1008.7
20260506123503 18 172 11.3 25.7 0.00 0.00 0.00 76 1008.6
20260506123003 18 175 12.9 22.5 0.00 0.00 0.00 77 1008.3
20260506122503 18 172 11.3 22.5 0.00 0.00 0.00 77 1008.4
20260506122003 17 173 8.0 22.5 0.00 0.00 0.00 77 1008.4
20260506121504 17 173 9.7 19.3 0.00 0.00 0.00 78 1008.5
20260506121003 17 170 14.5 27.4 0.00 0.00 0.00 77 1008.7
20260506120503 17 170 12.9 27.4 0.00 0.00 0.00 77 1008.8
20260506120024 17 172 9.7 24.1 0.00 0.00 0.00 77 1008.7
20260506115503 17 167 9.7 17.7 0.00 0.00 0.00 79 1008.7
20260506115024 17 162 9.7 25.7 0.00 0.00 0.00 78 1008.8
20260506114503 17 163 11.3 25.7 0.00 0.00 0.00 78 1008.8
20260506114003 17 167 11.3 25.7 0.00 0.00 0.00 78 1008.8
20260506113503 17 167 9.7 25.7 0.00 0.00 0.00 78 1008.9
20260506113003 17 166 8.0 22.5 0.00 0.00 0.00 79 1008.8
20260506112503 17 166 11.3 20.9 0.00 0.00 0.00 79 1008.9
20260506112003 17 165 9.7 19.3 0.00 0.00 0.00 79 1009.0
20260506111503 16 163 8.0 24.1 0.00 0.00 0.00 79 1009.1
20260506111024 16 166 11.3 24.1 0.00 0.00 0.00 79 1009.0
20260506110503 16 168 9.7 19.3 0.00 0.00 0.00 78 1008.9
20260506110004 16 169 9.7 22.5 0.00 0.00 0.00 79 1008.9
20260506105503 16 170 9.7 22.5 0.00 0.00 0.00 79 1009.0
20260506105003 16 168 9.7 16.1 0.00 0.00 0.00 79 1009.1
20260506104503 16 164 8.0 17.7 0.00 0.00 0.00 80 1009.1
20260506104003 16 163 8.0 17.7 0.00 0.00 0.00 80 1009.2
20260506103503 16 163 8.0 17.7 0.00 0.00 0.00 80 1009.2
20260506103003 16 165 8.0 17.7 0.00 0.00 0.00 79 1009.0
20260506102524 16 167 4.8 16.1 0.00 0.00 0.00 79 1008.9
20260506102024 16 167 4.8 17.7 0.00 0.00 0.00 79 1008.8
20260506101503 16 167 6.4 17.7 0.00 0.00 0.00 79 1008.7
20260506101003 16 167 4.8 17.7 0.00 0.00 0.00 79 1008.9
20260506100503 16 166 6.4 17.7 0.00 0.00 0.00 79 1009.0
20260506100004 16 166 8.0 20.9 0.00 0.00 0.00 79 1008.9
20260506095524 16 166 8.0 22.5 0.00 0.00 0.00 78 1008.9
20260506095003 16 166 8.0 22.5 0.00 0.00 0.00 78 1008.7
20260506094503 16 166 6.4 22.5 0.00 0.00 0.00 78 1008.8
20260506094003 16 167 6.4 22.5 0.00 0.00 0.00 78 1008.7
20260506093503 16 166 6.4 17.7 0.00 0.00 0.00 78 1008.8
20260506093003 16 165 4.8 17.7 0.00 0.00 0.00 78 1008.7
20260506092503 16 167 6.4 22.5 0.00 0.00 0.00 78 1008.7
20260506092003 16 167 8.0 22.5 0.00 0.00 0.00 77 1008.8
20260506091503 16 168 8.0 19.3 0.00 0.00 0.00 77 1008.8
20260506091003 16 169 8.0 19.3 0.00 0.00 0.00 77 1008.7
20260506090503 16 170 6.4 17.7 0.00 0.00 0.00 77 1008.8
20260506090003 16 170 8.0 24.1 0.00 0.00 0.00 77 1008.8
20260506085503 16 168 9.7 24.1 0.00 0.00 0.00 76 1008.8
20260506085024 16 166 9.7 22.5 0.00 0.00 0.00 76 1008.7
20260506084504 16 167 9.7 24.1 0.00 0.00 0.00 76 1008.7
20260506084003 16 166 9.7 24.1 0.00 0.00 0.00 76 1008.8
20260506083524 17 166 9.7 22.5 0.00 0.00 0.00 75 1008.8
20260506083003 17 165 8.0 29.0 0.00 0.00 0.00 75 1008.8
20260506082524 17 163 9.7 29.0 0.00 0.00 0.00 75 1008.8
20260506082003 17 163 9.7 24.1 0.00 0.00 0.00 75 1008.8
20260506081503 17 166 8.0 24.1 0.00 0.00 0.00 75 1008.7
20260506081003 17 167 9.7 29.0 0.00 0.00 0.00 74 1008.7
20260506080503 17 166 9.7 29.0 0.00 0.00 0.00 74 1008.7
20260506073524 17 168 8.0 19.3 0.00 0.00 0.00 72 1008.7
20260506073003 17 166 9.7 19.3 0.00 0.00 0.00 72 1008.6
20260506072503 17 166 9.7 22.5 0.00 0.00 0.00 72 1008.6
20260506072003 17 168 9.7 22.5 0.00 0.00 0.00 71 1008.5
20260506071503 17 168 8.0 19.3 0.00 0.00 0.00 71 1008.4
20260506071024 17 168 8.0 19.3 0.00 0.00 0.00 71 1008.4
20260506070524 17 170 8.0 20.9 0.00 0.00 0.00 70 1008.4
20260506062503 18 169 11.3 22.5 0.00 0.00 0.00 67 1008.4
20260506062003 18 174 9.7 24.1 0.00 0.00 0.00 67 1008.4
20260506061503 18 176 11.3 27.4 0.00 0.00 0.00 67 1008.4
20260506061003 18 171 12.9 33.8 0.00 0.00 0.00 66 1008.3
20260506060504 18 170 12.9 33.8 0.00 0.00 0.00 66 1008.3